Terminal Aerodrome Forecast
Issued by NWS Medford, OR

Home | Current Version | Previous Version | Text Only | Print | Product List | Glossary On
Versions: 1 2 3 4 5 6 7 8 9 10 11 12 13 14 15 16
000
FTUS46 KMFR 280302 AAA
TAFMFR
TAF AMD
KMFR 280302Z 2803/2824 32010KT P6SM SCT050 SCT080
     FM280600 28006KT P6SM VCSH OVC035
     FM281000 VRB03KT P6SM SCT030=

USA.gov is the U.S. government's official web portal to all federal, state and local government web resources and services.